Showing default

KUIPER-00051, 64511

Orbit data source: Space-Track

KUIPER-00051, 64511 is a payload satellite owned by Kuiper Systems (US) in LEO that was launched on Mon, 23 Jun 2025 UTC via an ATLAS V 551 launch vehicle from the Air Force Eastern Test Range (AFETR). Payload-class satellites include a variety of spacecraft equipped with specific instruments for various scientific and technological missions. These include communications satellites like Starlink; space stations such as the ISS; scientific satellites like the Hubble; Earth observation satellites from companies like Planet Labs, Umbra, and HawkEye 360; GPS; miniature CubeSats for education and research; and military/defense satellites.

Loading next visibility...
Identifier
64511, 2025-134M
Orbit
LEO
Country
Flag of USUS
Related business
Manufacturer
Kuiper Systems
Mission
Operational Commercial Communications
Bus & Motor
KUIPER, Unknown motor
Mass
~490 kg wet, ~490 kg dry
Launch date (UTC)
2025-06-23 (1 year ago)
Launch vehicle
ATLAS V 551
Launch site
Air Force Eastern Test Range (AFETR)
Object type
Payload
Rocket body
Debris
Shape & HBR
Box + 2 Pan, 3.4 m
Radar Cross Section
2.326 m², Large (>1 m²)

Expand to show TLE details & history
Last TLE update: 2 days ago

TLE from 2 days ago
0 KUIPER-00051
1 64511U 25134M   26170.27784829 -.00000238  00000-0 -22353-5 0  9990
2 64511  51.8985 137.5014 0000653  87.9409 272.1628 14.79929102 55201
Epoch: 2026-06-19T06:40Z
TLE epoch observation values (Epoch: 2026-06-19T06:40:06.092Z)
Latitude
-0.00002°
Longitude
129.96688°
Altitude
630.277 km
Speed
7.545 km/s
True Right ascension
09h 10m 00s
True Declination
0° 00' 00"
Sunlit
Object was in daylight at epoch
Visualization orbit readout
Latitude
Unknown
Longitude
Unknown
Altitude
Unknown
Speed
Unknown
Apparent Right ascension
Unknown
Apparent Declination
Unknown
Sunlit
N/A
Visualization observer readout
Local Sidereal Time
07:17:15
Azimuth
Unknown
Elevation
Unknown
Doppler factor
Unknown
Orbital elements
Apogee altitude
630.457 km
Perigee altitude
629.542 km
Semi-major axis
7,008.136 km
Eccentricity
0.00007
Inclination
51.8985°
RAAN
137.5014°
Arg. of periapsis
87.9409°
True anomaly
272.15532°
Mean anomaly
272.1628°
Eccentric anomaly
272.15906°
Mean motion
3.69947 °/min
Orbital period
97.31 mins
BSTAR
-0.0000022353
Loading maneuver chart data...
Computing Atmospheric mass density...
Loading historical data...
Loading historical data...
Loading historical data...
Loading historical data...
Loading historical data...
Loading historical data...
Loading historical data...

Documentation

Showing up to 5 results
|